Temperature
16 16 16 16 16 16 16 16 16 16 16 16 16 16 15 15 15 15 15 15 15 15 15 15 15 15 15 15 15 15 15 15 15 15 15 15 15 15 15 15 14 14 14
16 16 16 16 16 16 16 16 16 16 16 16 15 15 15 15 15 15 15 15 15 15 15 15 15 15 15 15 15 15 15 15 15 15 15 15 15 15 15 15 14 14 14
16 15 15 15 15 15 15 15 15 15 15 15 15 15 15 15 15 15 15 15 14 15 15 15 15 15 15 15 15 15 15 15 15 14 14 14 14 14 14 14 14 14 14
15 15 15 15 15 15 15 15 15 15 15 15 15 15 15 15 15 15 15 14 14 15 15 15 15 15 15 15 15 15 15 15 14 14 13 13 14 14 14 14 14 14 14
15 15 15 15 15 15 15 15 15 15 15 15 15 15 15 15 15 15 15 14 14 14 14 14 14 14 14 14 14 14 14 14 14 14 13 13 13 14 14 14 14 14 14
14 14 14 15 15 15 15 15 15 15 15 15 15 15 15 15 14 14 14 14 14 14 14 14 14 14 14 14 14 14 14 14 14 13 13 13 13 14 14 14 14 14 14
14 14 14 14 14 14 14 14 14 14 15 15 15 15 15 14 14 14 14 14 14 14 14 14 14 14 14 14 14 14 14 14 13 13 13 13 13 13 13 13 13 13 13
14 13 13 14 14 14 14 14 14 14 14 14 14 14 14 14 14 14 14 14 14 14 14 14 14 14 14 14 14 14 14 13 13 13 13 13 13 13 13 13 13 13 13
13 13 13 13 14 14 14 14 14 14 14 14 14 14 14 14 14 14 14 14 14 14 14 14 14 14 14 13 13 13 13 13 13 13 12 13 13 13 13 13 13 13 13
12 13 13 13 13 13 13 13 13 13 13 14 14 14 14 13 13 14 14 14 14 13 13 14 13 13 13 13 13 13 13 13 12 12 12 12 13 13 12 13 13 13 13
12 12 12 12 13 13 13 13 13 13 13 13 13 13 13 13 13 13 13 13 13 13 13 13 13 13 13 13 13 13 13 12 12 12 12 12 12 12 12 12 12 12 12
12 12 12 12 12 12 12 12 12 12 13 13 13 13 13 13 13 13 13 13 13 13 13 13 13 13 12 12 12 12 12 12 12 12 12 12 12 12 12 12 12 12 12
11 11 11 11 12 12 12 12 12 12 12 12 12 12 12 12 12 12 12 12 12 12 12 12 12 12 12 12 12 12 12 12 12 12 12 12 12 12 12 12 12 12 12
10 10 10 11 11 11 11 11 12 12 12 12 12 12 12 12 12 12 12 12 12 12 12 12 12 12 12 12 12 12 12 11 11 11 11 12 12 12 12 12 12 12 11
9 9 10 10 10 11 11 11 11 11 11 11 11 11 11 12 12 11 11 12 12 11 12 12 12 12 11 11 11 11 11 11 11 11 11 11 11 11 11 11 11 11 11
8 8 9 9 10 10 10 11 11 11 11 11 11 11 11 11 11 11 11 11 11 11 11 11 11 11 11 11 11 11 11 11 11 11 11 11 11 11 11 11 11 11 11
7 8 8 9 9 9 10 10 10 10 10 10 11 11 11 11 11 11 11 11 11 11 11 11 11 11 11 11 11 11 11 11 11 10 10 10 11 11 11 11 11 11 11
6 7 7 8 8 9 9 9 9 10 10 10 10 10 10 10 11 11 11 11 11 11 11 11 11 10 10 10 10 10 10 10 10 10 10 10 10 10 11 11 11 11 11
6 6 7 7 8 8 8 9 9 9 9 9 10 10 10 10 10 10 10 10 10 10 10 10 10 10 10 10 10 10 10 10 10 10 10 10 10 10 10 10 11 10 10
5 6 6 7 7 7 7 8 8 8 9 9 9 9 9 10 10 10 10 10 10 10 10 10 10 10 10 10 10 10 10 10 10 10 10 10 10 10 10 10 10 10 10
4 5 5 6 6 7 7 7 8 8 8 8 9 9 9 9 9 9 9 9 9 9 10 10 9 9 9 9 9 9 9 9 9 9 10 10 10 10 10 10 10 10 10
4 4 5 5 6 6 6 6 7 7 7 8 8 8 8 9 9 9 9 9 9 9 9 9 9 9 9 9 9 9 9 9 9 9 9 9 9 9 9 9 9 9 9
3 3 4 4 5 5 6 6 6 6 7 7 7 8 8 8 8 8 8 8 8 9 9 9 9 9 9 9 9 9 9 9 9 9 9 9 9 9 9 9 9 9 9
2 3 3 4 4 5 5 5 5 6 6 6 7 7 7 7 8 8 8 8 8 8 8 9 9 8 8 8 8 9 9 9 9 8 9 9 9 9 9 9 9 9 9
1 2 3 3 3 4 4 4 5 5 5 6 6 6 7 7 7 7 7 8 7 8 8 8 8 8 8 8 8 8 9 9 9 8 8 8 9 9 9 9 9 9 9
0 1 2 2 3 3 3 4 4 4 5 5 5 6 6 6 7 7 7 7 7 7 7 8 8 8 8 8 8 8 8 8 8 8 8 8 8 8 8 8 8 8 8
Wind_Speed
5 9 11 13 14 14 14 15 15 15 15 16 16 15 15 14 14 14 14 14 14 14 15 15 15 15 16 16 16 16 16 16 17 17 17 18 18 17 16 15 15 16 17
6 10 12 13 14 14 14 14 14 15 15 16 16 15 14 14 14 13 14 13 13 14 14 14 15 15 15 16 16 16 16 16 16 16 16 17 17 17 16 15 15 15 16
6 10 13 13 13 14 14 14 14 15 15 15 15 14 14 14 14 13 13 13 13 14 15 15 15 15 16 16 16 16 16 15 14 12 12 13 15 16 15 15 16 16 16
7 10 11 12 13 13 13 13 14 15 15 15 15 14 14 13 13 13 13 13 13 14 15 15 15 16 15 15 15 15 15 14 11 9 10 12 13 14 15 15 15 16 15
7 8 10 12 12 12 12 12 13 14 14 14 14 14 14 13 13 13 13 13 14 14 15 15 15 15 15 15 15 14 13 12 10 10 11 11 12 13 14 14 14 15 15
7 8 10 11 10 11 12 12 13 13 13 13 13 13 13 13 13 13 13 13 13 14 14 14 14 14 14 14 14 13 11 9 9 10 10 10 11 13 13 13 13 14 14
6 7 9 9 9 9 11 11 12 12 12 12 12 12 12 13 13 13 13 13 13 14 14 13 13 13 13 13 13 12 10 7 8 9 9 10 11 12 12 13 13 13 13
6 7 9 9 8 8 10 10 11 11 12 12 11 11 11 12 13 13 13 13 13 13 13 13 12 12 12 12 12 11 9 6 8 8 9 10 11 11 12 12 12 12 12
5 6 7 7 7 7 8 10 10 10 11 11 11 11 11 11 12 13 12 12 12 12 13 13 12 12 12 12 11 10 9 5 7 8 8 9 10 11 11 11 11 11 11
5 5 5 5 6 6 7 9 10 10 10 10 11 11 10 10 11 12 12 11 11 12 12 12 12 12 12 11 11 10 8 5 7 7 7 9 10 10 10 11 10 11 11
4 3 3 4 4 4 6 8 8 9 9 10 10 10 10 9 9 9 10 11 11 12 12 12 13 12 12 11 10 8 5 5 6 6 7 9 9 9 10 10 10 10 10
3 3 2 2 3 4 5 7 6 7 8 8 8 8 7 7 7 7 10 11 11 12 12 12 12 11 9 8 7 5 4 5 5 5 7 8 8 9 9 9 9 9 10
2 3 3 2 2 3 3 4 4 4 6 6 7 7 6 6 6 7 7 8 9 10 9 10 9 7 6 6 5 4 4 4 4 5 7 6 7 8 8 8 8 9 9
3 3 3 4 1 1 2 3 3 4 4 5 6 7 6 5 5 5 5 6 6 6 7 7 6 7 6 6 6 5 5 3 3 4 6 6 6 7 8 8 8 8 7
3 3 3 3 3 1 1 2 2 3 4 4 5 6 6 5 5 5 4 5 6 5 6 6 6 6 6 6 5 5 5 4 3 3 5 6 5 5 6 6 7 7 7
4 3 3 3 3 2 0 1 2 2 3 4 4 6 6 5 5 5 4 4 5 5 5 5 6 6 5 5 5 5 4 4 3 3 3 5 5 5 4 5 5 6 6
4 4 3 3 3 3 1 1 2 2 3 3 4 5 6 6 6 5 5 4 4 5 6 5 6 5 5 4 4 4 4 3 3 3 3 3 4 4 3 3 4 5 5
5 5 3 3 3 3 2 1 1 2 3 3 5 5 6 7 7 6 5 5 5 5 6 5 5 5 5 4 4 3 3 3 3 3 3 3 3 3 3 4 4 4 5
5 4 4 3 3 3 3 1 1 1 2 3 4 4 5 7 8 6 5 5 6 5 5 5 4 4 5 4 3 3 3 3 3 3 3 3 3 2 3 5 5 4 4
6 4 4 3 4 4 3 1 0 0 1 1 2 4 5 6 7 7 5 6 7 5 5 5 5 4 4 4 3 3 2 3 3 3 3 3 3 3 3 3 4 4 3
8 7 5 4 4 3 2 1 1 1 2 2 1 2 4 5 6 7 6 6 7 6 6 7 6 5 4 4 3 3 2 2 3 3 4 3 4 4 4 4 4 4 4
9 8 8 6 4 3 3 3 2 3 3 2 2 1 2 4 5 6 7 7 7 6 7 7 7 5 4 5 4 4 3 3 3 3 3 3 4 4 5 5 4 4 4
10 10 7 7 6 4 4 3 1 1 1 2 2 2 2 3 5 6 7 7 7 7 7 8 8 8 6 5 5 4 4 4 3 4 4 4 4 4 4 5 5 5 5
10 9 9 7 6 5 4 3 2 2 3 3 3 3 3 3 3 4 6 7 7 6 7 8 8 7 8 6 5 4 4 2 3 3 4 5 5 5 5 4 6 6 6
9 9 9 8 6 6 4 3 2 2 3 3 2 3 3 2 3 4 4 5 7 7 7 7 7 8 8 8 6 4 4 3 4 3 4 5 5 5 5 5 6 6 7
9 9 9 8 7 6 5 4 3 3 3 2 2 3 3 2 2 3 4 5 6 7 8 8 8 9 8 8 7 6 6 5 5 5 4 5 5 4 5 5 6 6 7
Wind_Direction
171 167 157 154 150 145 142 138 134 131 130 129 126 123 121 118 115 112 111 111 110 109 106 104 102 100 97 95 93 90 89 89 88 87 85 84 84 85 84 83 85 81 78
164 165 154 151 151 147 143 139 136 134 133 131 128 126 124 121 118 116 112 111 112 111 109 108 105 104 102 99 96 93 92 91 91 91 91 87 83 83 82 76 75 83 81
149 157 155 147 146 145 143 141 139 137 135 134 131 129 127 124 122 118 115 112 110 108 108 107 104 103 103 101 97 95 94 94 94 96 100 94 88 85 84 83 83 85 83
144 150 149 144 143 140 140 142 142 140 139 137 136 134 132 128 124 120 115 111 110 108 107 107 105 103 103 103 101 99 96 94 94 99 95 91 90 88 87 87 86 85 84
132 140 137 136 140 140 140 140 142 143 142 140 139 138 136 133 129 124 117 112 111 109 108 108 107 105 103 102 102 101 99 96 98 97 92 90 90 89 89 88 87 85 85
134 131 128 128 132 138 139 139 139 139 140 140 141 140 139 137 132 127 121 116 115 113 112 111 111 109 107 105 102 102 102 105 111 96 93 93 91 91 90 90 89 87 86
137 132 129 120 127 132 134 137 138 139 138 136 140 143 142 139 135 130 124 121 120 119 117 115 113 113 111 108 105 101 98 97 101 97 95 93 92 94 94 93 91 89 87
134 129 130 126 121 130 136 132 136 136 138 139 136 136 138 139 136 132 128 126 125 125 123 122 119 117 113 110 108 103 99 105 104 100 95 93 95 97 97 97 94 93 90
116 119 124 136 136 128 132 136 133 134 132 133 134 133 130 131 136 134 131 130 130 130 127 125 124 121 115 111 106 101 99 97 103 98 96 92 96 100 100 100 98 95 92
101 106 116 127 137 146 144 133 134 129 131 132 128 124 124 127 133 134 134 133 135 133 130 127 125 120 115 112 107 102 108 117 105 103 97 96 99 102 103 102 99 97 96
72 76 106 121 127 139 150 140 136 135 132 134 133 127 133 142 142 143 138 132 136 135 132 129 127 121 117 112 109 110 122 116 109 98 96 100 107 108 105 102 102 100 99
46 45 55 98 127 137 143 146 149 151 151 152 151 148 151 147 139 134 128 129 135 134 132 132 131 131 133 128 123 133 123 114 108 100 99 108 113 114 111 108 107 105 100
34 28 14 33 108 131 140 148 153 158 162 162 159 159 154 143 137 135 136 136 139 143 142 140 145 147 142 134 136 133 121 117 111 105 100 105 117 123 123 121 116 110 105
23 13 8 4 27 129 146 154 155 159 160 162 166 162 156 147 147 147 151 152 154 157 154 155 155 149 143 144 143 133 128 123 114 109 99 96 113 128 133 132 125 119 115
9 358 352 354 7 25 142 155 165 166 168 166 169 168 164 158 158 155 157 159 159 156 159 158 156 152 149 146 143 140 134 127 124 120 113 99 107 123 135 138 135 130 126
348 338 335 345 355 352 343 171 174 172 173 173 171 178 172 170 165 164 162 162 162 164 163 164 161 156 153 151 150 149 144 140 136 130 123 117 105 111 124 138 139 135 133
333 326 326 325 340 341 322 225 186 183 183 180 183 186 182 175 173 170 170 169 165 168 165 161 159 155 152 153 157 155 153 153 157 157 151 146 137 119 119 137 142 144 144
336 330 324 325 330 330 314 283 222 200 195 191 190 192 192 184 179 174 175 174 170 170 170 164 165 165 164 168 167 161 158 158 175 180 178 173 163 156 139 134 136 138 144
336 329 323 324 326 320 312 303 286 219 211 205 192 193 196 193 188 182 180 177 174 173 173 169 175 178 174 173 170 169 170 176 183 189 193 190 182 171 155 134 133 126 135
345 338 327 329 332 327 315 297 338 303 268 243 206 205 196 197 193 187 184 181 177 177 177 178 179 177 178 171 166 169 181 187 191 196 201 197 189 182 172 164 157 147 143
2 356 341 336 335 332 321 274 239 244 246 248 240 243 211 201 199 192 187 186 187 188 188 185 178 176 176 171 169 175 185 196 204 202 205 206 198 194 194 193 189 184 175
2 357 351 341 330 323 316 285 251 246 241 256 279 262 240 210 204 201 196 194 193 193 191 189 182 184 184 191 191 188 197 198 206 209 201 206 210 205 206 206 201 201 198
1 355 346 344 336 323 317 302 287 254 252 255 261 259 265 239 216 213 206 203 199 196 196 196 192 192 193 201 208 207 204 211 190 198 207 209 211 218 218 211 209 210 211
354 351 346 342 344 332 320 299 258 236 240 252 253 257 254 239 224 223 218 209 205 203 203 203 203 201 198 201 206 226 238 210 202 194 204 212 214 223 228 223 215 215 214
351 351 349 345 347 339 326 300 265 261 261 253 247 252 253 240 229 229 230 221 215 211 210 208 208 208 208 210 208 206 211 212 218 216 213 207 213 218 224 228 223 221 218
352 352 352 349 346 338 333 322 293 277 268 262 251 243 249 250 246 255 249 233 226 221 214 212 210 212 213 216 217 214 215 213 210 214 223 213 216 214 218 226 225 224 221
Height
1528 1530 1531 1533 1536 1537 1539 1540 1542 1543 1544 1544 1545 1546 1547 1547 1548 1548 1549 1549 1550 1550 1551 1551 1552 1552 1552 1552 1553 1553 1553 1553 1553 1554 1554 1554 1554 1554 1554 1554 1554 1553 1553
1528 1530 1532 1534 1536 1538 1539 1541 1542 1544 1544 1545 1546 1547 1548 1549 1549 1550 1550 1551 1551 1551 1552 1552 1553 1553 1554 1554 1554 1554 1555 1555 1555 1556 1556 1556 1556 1556 1556 1556 1555 1555 1555
1528 1530 1532 1534 1536 1538 1540 1542 1543 1544 1545 1546 1547 1548 1549 1550 1550 1551 1552 1552 1552 1553 1553 1554 1554 1555 1555 1555 1556 1556 1556 1557 1557 1558 1558 1559 1558 1558 1558 1557 1557 1557 1557
1528 1530 1532 1534 1537 1539 1540 1542 1544 1545 1546 1547 1548 1549 1550 1551 1551 1552 1553 1553 1554 1554 1554 1555 1555 1556 1556 1557 1557 1558 1558 1559 1559 1560 1561 1561 1560 1560 1559 1559 1559 1559 1559
1529 1530 1532 1535 1537 1539 1541 1542 1544 1545 1547 1548 1549 1550 1551 1552 1552 1553 1554 1554 1555 1555 1556 1556 1557 1557 1558 1558 1559 1559 1560 1560 1561 1561 1562 1562 1562 1561 1561 1561 1561 1560 1560
1529 1531 1532 1535 1537 1539 1541 1542 1544 1545 1547 1548 1549 1550 1551 1552 1553 1554 1554 1555 1556 1556 1557 1558 1558 1559 1559 1559 1560 1561 1561 1562 1563 1563 1563 1563 1563 1563 1563 1562 1562 1562 1562
1530 1531 1533 1535 1537 1539 1541 1542 1544 1545 1547 1548 1549 1551 1552 1553 1554 1554 1555 1556 1557 1557 1558 1559 1559 1560 1560 1561 1561 1562 1562 1563 1564 1564 1564 1565 1564 1564 1564 1564 1564 1563 1563
1530 1532 1533 1535 1537 1539 1541 1542 1544 1545 1547 1548 1550 1551 1552 1553 1554 1555 1556 1556 1557 1558 1559 1560 1560 1561 1562 1562 1562 1563 1564 1564 1565 1566 1566 1566 1566 1565 1565 1565 1565 1565 1565
1531 1532 1533 1535 1537 1538 1540 1542 1544 1545 1547 1548 1550 1551 1552 1553 1554 1555 1556 1557 1558 1559 1559 1560 1561 1562 1562 1563 1563 1564 1565 1565 1567 1567 1567 1567 1567 1567 1567 1566 1566 1566 1566
1531 1532 1533 1535 1536 1538 1540 1542 1544 1545 1547 1548 1549 1551 1552 1553 1554 1555 1556 1557 1558 1559 1560 1561 1562 1562 1563 1564 1564 1565 1566 1567 1568 1568 1568 1568 1568 1568 1568 1568 1568 1567 1567
1530 1531 1533 1534 1536 1537 1539 1541 1543 1545 1546 1548 1549 1550 1552 1553 1554 1555 1556 1557 1558 1559 1560 1561 1562 1563 1563 1564 1565 1566 1567 1568 1568 1569 1568 1568 1569 1569 1569 1569 1569 1569 1568
1528 1530 1532 1533 1535 1537 1538 1540 1542 1544 1545 1547 1548 1550 1551 1552 1553 1554 1555 1557 1558 1559 1560 1561 1562 1563 1564 1564 1565 1566 1567 1568 1568 1569 1569 1569 1569 1569 1569 1570 1570 1570 1570
1528 1529 1530 1532 1534 1535 1537 1539 1541 1542 1544 1546 1547 1548 1550 1551 1552 1553 1555 1556 1557 1558 1559 1561 1562 1563 1564 1564 1565 1566 1567 1568 1568 1569 1569 1569 1570 1570 1570 1570 1570 1570 1570
1527 1528 1529 1530 1532 1534 1536 1537 1539 1541 1542 1544 1545 1547 1548 1549 1551 1552 1553 1555 1556 1557 1559 1560 1561 1562 1563 1564 1565 1566 1566 1567 1568 1569 1569 1569 1570 1570 1570 1570 1570 1571 1571
1526 1526 1527 1528 1530 1532 1533 1535 1537 1539 1540 1542 1544 1545 1546 1548 1549 1550 1552 1553 1555 1556 1558 1559 1560 1561 1562 1563 1564 1565 1566 1567 1567 1568 1568 1569 1569 1570 1570 1570 1571 1571 1571
1524 1525 1526 1526 1528 1530 1531 1533 1535 1536 1538 1540 1542 1543 1545 1546 1548 1549 1550 1552 1553 1555 1556 1558 1559 1560 1561 1562 1563 1564 1565 1566 1567 1567 1568 1568 1569 1569 1570 1570 1570 1570 1570
1523 1524 1524 1525 1526 1527 1529 1531 1532 1534 1536 1537 1539 1541 1542 1544 1545 1547 1549 1550 1551 1553 1554 1556 1557 1559 1560 1561 1562 1563 1564 1565 1566 1567 1567 1568 1568 1568 1569 1569 1569 1570 1570
1521 1521 1522 1523 1524 1525 1526 1528 1530 1531 1533 1535 1536 1538 1540 1541 1543 1545 1546 1548 1549 1551 1552 1554 1556 1557 1558 1560 1561 1562 1563 1563 1564 1565 1566 1567 1567 1568 1568 1568 1569 1569 1570
1519 1519 1520 1521 1522 1523 1524 1526 1527 1528 1530 1532 1533 1535 1536 1538 1541 1542 1544 1545 1547 1549 1550 1552 1554 1555 1557 1558 1559 1560 1561 1562 1563 1564 1565 1565 1566 1566 1567 1567 1568 1568 1568
1518 1517 1518 1519 1520 1520 1521 1522 1524 1525 1527 1528 1530 1532 1533 1535 1538 1540 1541 1543 1545 1546 1548 1550 1551 1553 1555 1556 1557 1559 1559 1560 1561 1562 1563 1564 1564 1565 1565 1566 1566 1567 1567
1516 1515 1516 1516 1517 1517 1518 1519 1520 1521 1523 1524 1525 1528 1529 1531 1534 1536 1538 1540 1542 1543 1545 1547 1549 1550 1552 1554 1555 1557 1558 1558 1559 1560 1561 1562 1562 1563 1564 1564 1565 1565 1566
1514 1514 1513 1514 1514 1515 1515 1516 1517 1518 1519 1521 1522 1523 1526 1527 1530 1532 1535 1537 1538 1540 1542 1544 1546 1547 1549 1551 1553 1555 1556 1558 1557 1557 1558 1559 1560 1561 1562 1562 1563 1563 1564
1512 1512 1511 1511 1512 1512 1513 1514 1515 1516 1517 1518 1519 1520 1521 1524 1526 1528 1531 1533 1535 1537 1538 1540 1542 1544 1546 1548 1550 1552 1554 1554 1554 1555 1555 1556 1557 1558 1559 1559 1560 1560 1561
1511 1510 1510 1509 1509 1509 1510 1510 1511 1511 1512 1513 1514 1516 1518 1520 1521 1524 1526 1529 1531 1533 1535 1537 1539 1541 1543 1544 1546 1548 1550 1550 1552 1552 1553 1553 1554 1555 1555 1556 1557 1558 1558
1511 1509 1508 1507 1506 1507 1507 1507 1507 1508 1509 1510 1511 1513 1514 1515 1518 1520 1522 1524 1527 1529 1531 1533 1535 1537 1539 1540 1542 1543 1545 1546 1548 1549 1549 1550 1551 1552 1552 1553 1554 1554 1555
1510 1508 1506 1505 1505 1504 1504 1504 1504 1505 1506 1506 1507 1509 1510 1511 1513 1515 1517 1519 1522 1524 1526 1528 1530 1532 1534 1536 1538 1539 1541 1543 1544 1545 1546 1546 1547 1548 1549 1549 1550 1551 1552